sat.trackr.live / text

‹ back to catalog

STARLINK-36468

NORAD 67415 · 2026-005M

PAYLOAD ACTIVE UNKNOWN

§ Identity

Operator
Country
US
Launch date
2026-01-12
Launch site
AFETR
Launch vehicle
Mass (kg)
RCS (m²)

Purposes: comms

External: N2YO · Heavens-Above · Gunter

§ Orbital elements

Epoch: 2026-09-19T07:20:30.337152Z

Period
94.27 min
Inclination
43.0008°
Eccentricity
0.0001462
Mean motion
15.27585804 rev/d
Perigee alt
482.0 km
Apogee alt
484.0 km
Semi-major
6,861.2 km
B*
2.6745e-4
RAAN
224.8808°
Arg perigee
272.4405°
Mean anomaly
87.6279°
Rev number
3,830

§ Raw data

STARLINK-364681 67415U 26005M   26262.30590668  .00007106  00000+0  26745-3 0  99912 67415  43.0008 224.8808 0001462 272.4405  87.6279 15.27585804 38307

JSON: /api/v1/satellites/67415 · /tle

For live sub-satellite position, see the globe view (requires WebGL).

§ Visibility from observer

Set your observer location to see the next 7 days of passes ≥ 10°. The values pass through the URL so the page stays shareable.

No JS? Fill the form by hand. The geolocation button needs JavaScript.